SCP
0 0 0 0 0 0 0 0 0 0 0 -0 -0 -0 -0 -0 -0 -0 -0 -0 -0 -0 -0 -0 -0 0 0
0 0 0 0 0 0 0 0 0 0 0 0 -0 -0 -0 -0 -0 -0 -0 -0 -0 -0 -0 -0 -0 0 0
0 0 0 0 0 0 0 0 0 0 0 0 0 -0 -0 -0 -0 -0 -0 -0 -0 -0 -0 -0 0 0 0
0 0 0 0 0 0 0 0 0 0 0 0 0 0 0 -0 -0 -0 -0 -0 0 0 0 0 0 0 0
0 0 0 0 0 0 0 0 0 0 0 0 0 0 0 0 0 0 0 0 0 0 0 0 0 0 0
0 0 0 0 0 0 0 0 0 0 0 0 0 0 0 0 0 0 0 0 0 0 0 0 0 0 0
0 0 0 0 0 0 0 0 0 0 0 0 0 0 0 0 0 0 0 0 0 0 0 0 0 0 0
0 0 0 0 0 0 0 0 0 0 0 0 0 0 0 0 0 0 0 0 0 0 0 0 0 0 0
0 0 0 0 0 0 0 0 0 0 0 0 0 0 0 0 0 0 0 0 0 0 0 0 0 0 0
0 0 0 0 0 0 0 0 0 0 0 0 0 0 0 0 0 0 0 0 0 0 0 0 0 0 0
0 0 0 0 0 0 0 0 0 0 0 0 0 0 0 0 0 0 0 0 0 0 0 0 0 0 0
0 0 0 0 0 0 0 0 0 0 0 0 0 0 0 0 0 0 0 0 0 0 0 0 0 0 0
0 0 0 0 0 0 0 0 0 0 0 0 0 0 0 0 0 0 0 0 0 0 0 0 0 0 0
0 0 0 0 0 0 0 0 0 0 0 0 0 0 0 0 0 0 0 0 0 0 0 0 0 0 0
0 0 0 0 0 0 0 0 0 0 0 0 0 0 0 0 0 0 0 0 0 0 0 0 0 0 0
0 0 0 0 0 0 0 0 0 0 0 0 0 0 0 0 0 0 0 0 0 0 0 0 0 0 0
Wind_Speed_500mb
37 43 39 41 34 43 32 29 30 30 35 31 28 23 23 27 28 30 30 31 30 29 23 18 20 13 7
37 40 41 38 34 41 38 31 28 31 39 33 25 26 24 25 25 27 29 29 28 24 21 18 14 11 6
36 40 42 32 26 35 39 35 30 37 36 34 31 27 25 23 24 25 27 28 27 22 20 19 18 13 7
43 42 48 37 29 31 37 32 34 37 37 36 33 30 27 25 23 23 25 27 26 25 24 21 19 16 11
49 45 48 40 33 32 33 36 36 36 39 37 34 31 31 28 25 24 25 27 27 25 26 24 22 18 15
51 50 44 42 40 36 35 35 36 37 39 37 32 30 32 29 28 26 25 25 26 26 26 23 22 22 19
53 51 49 46 44 36 36 36 36 36 39 36 34 32 34 34 32 29 27 25 26 26 27 26 29 26 24
59 53 52 52 46 40 36 35 38 36 37 37 35 31 32 36 36 34 31 29 28 30 29 30 31 31 30
64 57 54 53 51 45 46 35 37 38 39 35 30 33 34 36 38 38 36 32 27 34 32 31 32 34 35
68 60 57 55 52 52 48 45 38 40 40 37 33 31 35 38 38 39 39 37 32 31 33 35 34 35 37
73 64 59 56 57 56 54 51 48 45 43 42 35 34 37 43 41 39 40 38 37 37 36 37 39 40 40
76 70 63 59 57 53 62 52 53 51 49 47 43 41 41 45 46 44 44 38 37 36 38 41 43 45 47
82 78 73 72 67 61 64 59 55 60 55 51 47 46 48 51 50 48 46 46 41 42 40 44 48 49 52
77 79 77 71 74 62 57 65 63 66 59 58 51 54 54 55 56 55 54 50 47 46 48 47 35 48 57
75 78 72 79 77 74 70 63 68 69 67 61 57 58 60 62 62 63 62 60 57 50 55 46 20 24 27
74 78 82 87 81 78 72 67 62 69 67 70 67 64 65 69 68 69 67 66 66 66 60 66 65 50 17
Wind_Direction_500mb
165 162 165 163 156 157 159 167 166 163 168 164 159 154 153 146 154 153 153 157 162 158 145 131 140 130 80
169 165 166 166 159 162 168 174 175 162 166 167 166 168 160 154 157 157 159 163 166 158 149 158 168 154 89
176 171 174 178 167 170 175 176 175 172 171 174 172 176 165 164 162 164 168 170 168 163 174 183 184 189 176
181 177 180 178 183 181 181 181 171 173 179 180 177 176 171 171 173 171 174 179 181 177 178 188 197 200 201
189 185 186 181 186 182 182 179 179 179 183 188 188 179 182 184 184 182 180 182 186 190 187 196 200 213 216
198 193 194 191 190 187 187 186 186 187 190 193 194 186 193 193 194 193 193 192 194 194 195 193 192 209 214
204 203 199 198 196 193 197 198 199 198 198 199 200 200 202 202 203 206 207 208 209 206 205 208 211 214 213
208 212 209 206 205 198 209 210 206 207 204 203 210 207 207 207 210 215 223 222 229 223 216 216 223 227 231
213 212 215 219 211 207 211 214 214 209 211 211 211 212 214 213 214 217 225 232 235 226 226 225 226 232 236
215 218 220 222 221 214 214 224 225 218 212 215 221 221 218 217 215 223 229 232 236 235 234 236 238 237 240
215 221 223 225 223 221 216 223 227 226 223 223 223 226 223 222 221 220 221 228 236 239 237 240 244 244 243
222 221 223 222 219 226 222 222 228 231 231 230 226 227 223 226 228 223 223 236 232 238 241 244 246 247 245
223 221 220 220 218 223 225 229 230 232 232 235 231 228 225 228 227 223 226 232 231 231 240 247 248 250 249
241 233 227 225 224 230 232 230 231 236 241 233 234 231 227 229 230 227 227 233 237 237 239 246 260 259 256
249 241 234 231 225 225 223 230 232 236 242 241 239 239 232 232 233 233 232 240 247 247 245 239 246 251 272
252 246 239 236 230 231 233 233 240 238 239 241 243 243 238 233 238 239 240 244 249 249 252 249 244 253 276
Wind_Speed_850mb
37 43 39 41 34 43 32 29 30 30 35 31 28 23 23 27 28 30 30 31 30 29 23 18 20 13 7
37 40 41 38 34 41 38 31 28 31 39 33 25 26 24 25 25 27 29 29 28 24 21 18 14 11 6
36 40 42 32 26 35 39 35 30 37 36 34 31 27 25 23 24 25 27 28 27 22 20 19 18 13 7
43 42 48 37 29 31 37 32 34 37 37 36 33 30 27 25 23 23 25 27 26 25 24 21 19 16 11
49 45 48 40 33 32 33 36 36 36 39 37 34 31 31 28 25 24 25 27 27 25 26 24 22 18 15
51 50 44 42 40 36 35 35 36 37 39 37 32 30 32 29 28 26 25 25 26 26 26 23 22 22 19
53 51 49 46 44 36 36 36 36 36 39 36 34 32 34 34 32 29 27 25 26 26 27 26 29 26 24
59 53 52 52 46 40 36 35 38 36 37 37 35 31 32 36 36 34 31 29 28 30 29 30 31 31 30
64 57 54 53 51 45 46 35 37 38 39 35 30 33 34 36 38 38 36 32 27 34 32 31 32 34 35
68 60 57 55 52 52 48 45 38 40 40 37 33 31 35 38 38 39 39 37 32 31 33 35 34 35 37
73 64 59 56 57 56 54 51 48 45 43 42 35 34 37 43 41 39 40 38 37 37 36 37 39 40 40
76 70 63 59 57 53 62 52 53 51 49 47 43 41 41 45 46 44 44 38 37 36 38 41 43 45 47
82 78 73 72 67 61 64 59 55 60 55 51 47 46 48 51 50 48 46 46 41 42 40 44 48 49 52
77 79 77 71 74 62 57 65 63 66 59 58 51 54 54 55 56 55 54 50 47 46 48 47 35 48 57
75 78 72 79 77 74 70 63 68 69 67 61 57 58 60 62 62 63 62 60 57 50 55 46 20 24 27
74 78 82 87 81 78 72 67 62 69 67 70 67 64 65 69 68 69 67 66 66 66 60 66 65 50 17
Wind_Direction_850mb
165 162 165 163 156 157 159 167 166 163 168 164 159 154 153 146 154 153 153 157 162 158 145 131 140 130 80
169 165 166 166 159 162 168 174 175 162 166 167 166 168 160 154 157 157 159 163 166 158 149 158 168 154 89
176 171 174 178 167 170 175 176 175 172 171 174 172 176 165 164 162 164 168 170 168 163 174 183 184 189 176
181 177 180 178 183 181 181 181 171 173 179 180 177 176 171 171 173 171 174 179 181 177 178 188 197 200 201
189 185 186 181 186 182 182 179 179 179 183 188 188 179 182 184 184 182 180 182 186 190 187 196 200 213 216
198 193 194 191 190 187 187 186 186 187 190 193 194 186 193 193 194 193 193 192 194 194 195 193 192 209 214
204 203 199 198 196 193 197 198 199 198 198 199 200 200 202 202 203 206 207 208 209 206 205 208 211 214 213
208 212 209 206 205 198 209 210 206 207 204 203 210 207 207 207 210 215 223 222 229 223 216 216 223 227 231
213 212 215 219 211 207 211 214 214 209 211 211 211 212 214 213 214 217 225 232 235 226 226 225 226 232 236
215 218 220 222 221 214 214 224 225 218 212 215 221 221 218 217 215 223 229 232 236 235 234 236 238 237 240
215 221 223 225 223 221 216 223 227 226 223 223 223 226 223 222 221 220 221 228 236 239 237 240 244 244 243
222 221 223 222 219 226 222 222 228 231 231 230 226 227 223 226 228 223 223 236 232 238 241 244 246 247 245
223 221 220 220 218 223 225 229 230 232 232 235 231 228 225 228 227 223 226 232 231 231 240 247 248 250 249
241 233 227 225 224 230 232 230 231 236 241 233 234 231 227 229 230 227 227 233 237 237 239 246 260 259 256
249 241 234 231 225 225 223 230 232 236 242 241 239 239 232 232 233 233 232 240 247 247 245 239 246 251 272
252 246 239 236 230 231 233 233 240 238 239 241 243 243 238 233 238 239 240 244 249 249 252 249 244 253 276